Location: Oshawa
(43.9000°N, 78.8670°W)
Time: 16:57:45
(UTC-04:00)

CZ-4C R/B - Visible Passes

Search period start: 26 April 2015 00:00
Search period end: 06 May 2015 00:00
Orbit: 428 x 537 km, 97.5° (Epoch: 26 April)

Date Brightness Start Highest point End Pass type
(mag) Time Alt. Az. Time Alt. Az. Time Alt. Az.
26 Apr 6.2 00:18:48 12° NW 00:18:48 12° NW 00:19:09 10° NNW visible
26 Apr 5.7 23:53:28 18° NNW 23:53:28 18° NNW 23:54:24 10° NNW visible
27 Apr 5.3 23:28:07 20° N 23:28:07 20° N 23:29:18 10° N visible
28 Apr 5.3 23:02:45 16° NNE 23:02:45 16° NNE 23:03:51 10° NNE visible
29 Apr 5.6 22:37:22 10° NE 22:37:22 10° NE 22:37:36 10° NE visible
30 Apr 5.8 00:11:41 17° NNW 00:11:41 17° NNW 00:12:34 10° NNW visible
30 Apr 5.3 23:46:17 23° N 23:46:17 23° N 23:47:41 10° N visible
01 May 5.0 23:20:53 23° NNE 23:20:53 23° NNE 23:22:27 10° N visible
02 May 5.2 22:55:28 16° NE 22:55:28 16° NE 22:56:48 10° NNE visible
03 May 5.9 00:29:46 14° NW 00:29:46 14° NW 00:30:26 10° NW visible
04 May 5.3 00:04:20 23° NNW 00:04:20 23° NNW 00:05:46 10° NNW visible
04 May 4.8 23:38:53 29° N 23:38:53 29° N 23:40:43 10° N visible
05 May 4.8 23:13:25 24° NE 23:13:25 24° NE 23:15:20 10° N visible
